Regional Weather Roundup
Issued by NWS

Home | Current Version | Previous Version | Text Only | Print | Product List | Glossary On
Versions: 1 2 3 4 5 6 7 8 9 10 11 12 13 14 15 16 17 18 19 20 21 22 23 24 25 26 27 28 29 30 31 32 33 34 35 36 37 38 39 40 41 42 43 44 45 46 47 48 49 50
000
ASUS43 KFSD 310502
RWRSD

WEATHER ROUNDUP FOR SOUTH DAKOTA
NATIONAL WEATHER SERVICE SIOUX FALLS SD
1200 AM CDT THU JUL 31 2014

NOTE: "FAIR" INDICATES FEW OR NO CLOUDS BELOW 12,000 FEET WITH NO
SIGNIFICANT WEATHER AND/OR OBSTRUCTIONS TO VISIBILITY.


SDZ001>005-009-010-012>017-310600-
NORTHWEST AND NORTH CENTRAL SOUTH DAKOTA

CITY           SKY/WX    TMP DP  RH WIND       PRES   REMARKS
BUFFALO          N/A     70  52  52 CALM      30.12S
FAITH            N/A     65  55  70 N6        30.14S
MOBRIDGE       CLEAR     64  57  78 S6        30.08F
$$

SDZ012>016-024>037-041>051-057-063-072>074-310600-
SOUTHWEST AND SOUTH CENTRAL SOUTH DAKOTA

CITY           SKY/WX    TMP DP  RH WIND       PRES   REMARKS
RAPID CTY ARPT PTCLDY    64  50  60 N10       30.18R
PIERRE         CLEAR     67  56  67 E8        30.07S
CUSTER         MOCLDY    59  43  55 N6        30.32R
ELLSWORTH AFB  PTCLDY    66  51  58 NW8       30.18S
PHILIP         CLEAR     62  51  67 W7        30.08R
PINE RIDGE     MOCLDY    61  51  70 CALM      30.17S
WINNER         FAIR      69  54  58 SE10      30.08F
$$

SDZ004>011-016>023-039-040-310600-
NORTHEAST SOUTH DAKOTA

CITY           SKY/WX    TMP DP  RH WIND       PRES   REMARKS
ABERDEEN       MOCLDY    58  55  90 CALM      30.09F
WATERTOWN      CLEAR     61  54  77 CALM      30.11S
SISSETON         N/A     56  55  97 CALM      30.07S
$$

SDZ017-020-022-023-036>040-048>070-310600-
SOUTHEAST SOUTH DAKOTA

CITY           SKY/WX    TMP DP  RH WIND       PRES   REMARKS
SIOUX FALLS    CLEAR     61  56  83 NW3       30.11S
HURON          PTCLDY    66  56  70 SE5       30.08S
CHAMBERLAIN    PTCLDY    65  55  68 SE6       30.09S
MITCHELL       PTCLDY    69  56  62 S6        30.10S
YANKTON        CLEAR     63  57  82 SW3       30.11S
$$

ABBREVIATIONS USED IN REMARKS
   TC - TEMPERATURE IN CELSIUS
  WCI - WIND CHILL INDEX
   HX - HEAT INDEX
  VSB - VISIBILITY




USA.gov is the U.S. government's official web portal to all federal, state and local government web resources and services.